CEB467 RPLL-RPVI

Flight info

Callsign CEB467
Flight time 0h 47m
Altitude 31000
Route VERDE4V VERDE A461 SAJ W3 BEDER BEDER1N
Aircraft A20N/M-SDE2E3FGHIRWXY/LB1

Departure

Time 2026-04-24 11:32
Airport Ninoy Aquino International Airport (RPLL)

Arrival

Time 2026-04-24 12:20
Airport Iloilo International Airport (RPVI)
Time Latitude Longitude Altitude Speed Heading
2026-04-24 11:05 14.52242 121.00951 81 ft 0 kts 44°
2026-04-24 11:21 14.52234 121.00942 81 ft 2 kts 45°
2026-04-24 11:22 14.52223 121.00932 81 ft 2 kts 44°
2026-04-24 11:22 14.52213 121.00921 81 ft 2 kts 44°
2026-04-24 11:22 14.52202 121.00910 81 ft 2 kts 44°
2026-04-24 11:22 14.52191 121.00899 81 ft 2 kts 44°
2026-04-24 11:23 14.52184 121.00892 81 ft 2 kts 45°
2026-04-24 11:23 14.52171 121.00884 81 ft 2 kts 18°
2026-04-24 11:23 14.52156 121.00881 81 ft 2 kts 356°
2026-04-24 11:23 14.52142 121.00884 81 ft 2 kts 336°
2026-04-24 11:24 14.52130 121.00891 81 ft 0 kts 317°
2026-04-24 11:24 14.52126 121.00897 81 ft 1 kts 313°
2026-04-24 11:24 14.52125 121.00897 81 ft 0 kts 314°
2026-04-24 11:26 14.52130 121.00891 81 ft 2 kts 314°
2026-04-24 11:26 14.52150 121.00871 81 ft 4 kts 314°
2026-04-24 11:27 14.52180 121.00840 81 ft 7 kts 314°
2026-04-24 11:27 14.52224 121.00795 81 ft 10 kts 316°
2026-04-24 11:27 14.52284 121.00735 81 ft 13 kts 314°
2026-04-24 11:27 14.52353 121.00662 81 ft 15 kts 315°
2026-04-24 11:28 14.52427 121.00587 81 ft 13 kts 314°
2026-04-24 11:28 14.52491 121.00519 81 ft 10 kts 314°
2026-04-24 11:28 14.52485 121.00486 81 ft 5 kts 226°
2026-04-24 11:28 14.52454 121.00452 81 ft 7 kts 226°
2026-04-24 11:29 14.52417 121.00413 81 ft 8 kts 225°
2026-04-24 11:29 14.52379 121.00391 81 ft 4 kts 159°
2026-04-24 11:29 14.52351 121.00417 81 ft 6 kts 134°
2026-04-24 11:29 14.52325 121.00445 81 ft 0 kts 135°
2026-04-24 11:31 14.52305 121.00465 81 ft 25 kts 135°
2026-04-24 11:32 14.51998 121.00782 81 ft 96 kts 135°
2026-04-24 11:32 14.51377 121.01420 97 ft 149 kts 133°
2026-04-24 11:32 14.50616 121.02198 526 ft 155 kts 133°
2026-04-24 11:32 14.49859 121.02988 1075 ft 156 kts 133°
2026-04-24 11:33 14.49092 121.03790 1543 ft 156 kts 134°
2026-04-24 11:33 14.48329 121.04586 1975 ft 157 kts 134°
2026-04-24 11:33 14.47559 121.05389 2411 ft 158 kts 134°
2026-04-24 11:33 14.46775 121.06203 2851 ft 160 kts 135°
2026-04-24 11:34 14.45995 121.07012 3279 ft 162 kts 135°
2026-04-24 11:34 14.45157 121.07880 3558 ft 177 kts 136°
2026-04-24 11:34 14.44091 121.08607 3842 ft 193 kts 163°
2026-04-24 11:34 14.42694 121.08690 4153 ft 210 kts 181°
2026-04-24 11:35 14.41142 121.08621 4403 ft 233 kts 181°
2026-04-24 11:35 14.39446 121.08554 4779 ft 251 kts 181°
2026-04-24 11:35 14.37627 121.08484 5195 ft 269 kts 181°
2026-04-24 11:35 14.35725 121.08410 5787 ft 278 kts 181°
2026-04-24 11:36 14.33770 121.08315 6534 ft 282 kts 182°
2026-04-24 11:36 14.31777 121.08192 7275 ft 285 kts 183°
2026-04-24 11:36 14.29794 121.08067 8005 ft 288 kts 183°
2026-04-24 11:36 14.27787 121.07941 8715 ft 291 kts 183°
2026-04-24 11:37 14.25725 121.07812 9416 ft 295 kts 184°
2026-04-24 11:37 14.23645 121.07684 10112 ft 297 kts 184°
2026-04-24 11:37 14.21556 121.07555 10624 ft 306 kts 184°
2026-04-24 11:37 14.19365 121.07420 10915 ft 323 kts 184°
2026-04-24 11:38 14.17037 121.07278 11200 ft 339 kts 184°
2026-04-24 11:38 14.14618 121.07129 11457 ft 354 kts 184°
2026-04-24 11:38 14.12116 121.06976 11744 ft 368 kts 184°
2026-04-24 11:38 14.09520 121.06819 12254 ft 373 kts 184°
2026-04-24 11:39 14.06890 121.06660 12854 ft 375 kts 184°
2026-04-24 11:39 14.04248 121.06499 13421 ft 378 kts 184°
2026-04-24 11:39 14.01608 121.06338 13942 ft 381 kts 184°
2026-04-24 11:39 13.98935 121.06173 14436 ft 385 kts 184°
2026-04-24 11:40 13.96211 121.06005 14915 ft 388 kts 184°
2026-04-24 11:40 13.93486 121.05837 15375 ft 392 kts 184°
2026-04-24 11:40 13.90769 121.05670 15816 ft 395 kts 184°
2026-04-24 11:40 13.87977 121.05499 16253 ft 398 kts 184°
2026-04-24 11:41 13.85180 121.05327 16668 ft 401 kts 184°
2026-04-24 11:41 13.82375 121.05155 17069 ft 404 kts 184°
2026-04-24 11:41 13.79514 121.04980 17474 ft 407 kts 184°
2026-04-24 11:41 13.76674 121.04806 17889 ft 410 kts 184°
2026-04-24 11:42 13.73801 121.04630 18307 ft 412 kts 184°
2026-04-24 11:42 13.70913 121.04453 18730 ft 413 kts 184°
2026-04-24 11:42 13.68047 121.04278 19144 ft 415 kts 184°
2026-04-24 11:42 13.65118 121.04099 19556 ft 417 kts 184°
2026-04-24 11:43 13.62186 121.03919 19974 ft 419 kts 184°
2026-04-24 11:43 13.59261 121.03740 20393 ft 421 kts 183°
2026-04-24 11:43 13.56326 121.03559 20790 ft 423 kts 183°
2026-04-24 11:43 13.53350 121.03378 21198 ft 425 kts 183°
2026-04-24 11:44 13.50394 121.03228 21597 ft 426 kts 181°
2026-04-24 11:44 13.47378 121.03216 21988 ft 429 kts 179°
2026-04-24 11:44 13.44405 121.03243 22376 ft 431 kts 179°
2026-04-24 11:44 13.41347 121.03277 22773 ft 433 kts 179°
2026-04-24 11:45 13.38320 121.03310 23146 ft 435 kts 179°
2026-04-24 11:45 13.35287 121.03343 23514 ft 438 kts 180°
2026-04-24 11:45 13.32230 121.03375 23884 ft 440 kts 180°
2026-04-24 11:45 13.29122 121.03406 24247 ft 442 kts 180°
2026-04-24 11:46 13.26051 121.03436 24596 ft 445 kts 180°
2026-04-24 11:46 13.22908 121.03468 24949 ft 447 kts 180°
2026-04-24 11:46 13.19767 121.03498 25293 ft 450 kts 180°
2026-04-24 11:46 13.16604 121.03529 25628 ft 452 kts 180°
2026-04-24 11:47 13.13432 121.03560 26015 ft 453 kts 180°
2026-04-24 11:47 13.10260 121.03591 26503 ft 451 kts 180°
2026-04-24 11:47 13.07113 121.03623 26983 ft 450 kts 180°
2026-04-24 11:47 13.03970 121.03655 27426 ft 449 kts 180°
2026-04-24 11:48 13.00824 121.03686 27859 ft 448 kts 181°
2026-04-24 11:48 12.97713 121.03716 28276 ft 447 kts 181°
2026-04-24 11:48 12.94568 121.03747 28685 ft 446 kts 181°
2026-04-24 11:48 12.91459 121.03778 29091 ft 446 kts 181°
2026-04-24 11:49 12.88320 121.03808 29485 ft 445 kts 181°
2026-04-24 11:49 12.85190 121.03839 29821 ft 445 kts 181°
2026-04-24 11:49 12.82066 121.03869 30118 ft 446 kts 181°
2026-04-24 11:49 12.78908 121.03900 30406 ft 447 kts 181°
2026-04-24 11:50 12.75788 121.03931 30685 ft 448 kts 181°
2026-04-24 11:50 12.72627 121.03962 30942 ft 449 kts 181°
2026-04-24 11:50 12.66366 121.04024 30963 ft 450 kts 181°
2026-04-24 11:51 12.60754 121.04079 30943 ft 450 kts 181°
2026-04-24 11:51 12.54409 121.04143 30926 ft 450 kts 181°
2026-04-24 11:52 12.48140 121.04205 30913 ft 453 kts 181°
2026-04-24 11:52 12.41651 121.04494 30898 ft 468 kts 173°
2026-04-24 11:53 12.36304 121.06014 30897 ft 480 kts 159°
2026-04-24 11:53 12.32320 121.08186 30893 ft 488 kts 147°
2026-04-24 11:53 12.29641 121.10317 30900 ft 493 kts 139°
2026-04-24 11:54 12.24555 121.15166 30899 ft 496 kts 137°
2026-04-24 11:54 12.19501 121.20060 30903 ft 497 kts 137°
2026-04-24 11:55 12.14435 121.24929 30899 ft 497 kts 138°
2026-04-24 11:55 12.09365 121.29781 30890 ft 497 kts 138°
2026-04-24 11:56 12.04282 121.34635 30883 ft 497 kts 138°
2026-04-24 11:56 11.99196 121.39490 30874 ft 496 kts 138°
2026-04-24 11:57 11.96735 121.41840 30870 ft 479 kts 138°
2026-04-24 11:57 11.94309 121.44157 30869 ft 464 kts 138°
2026-04-24 11:57 11.89614 121.48633 30873 ft 461 kts 138°
2026-04-24 11:58 11.84897 121.53128 30451 ft 461 kts 138°
2026-04-24 11:58 11.82563 121.55351 29881 ft 459 kts 138°
2026-04-24 11:58 11.80230 121.57572 29209 ft 459 kts 137°
2026-04-24 11:59 11.77889 121.59801 28458 ft 461 kts 137°
2026-04-24 11:59 11.75531 121.62045 27711 ft 463 kts 137°
2026-04-24 11:59 11.73163 121.64301 26981 ft 464 kts 137°
2026-04-24 11:59 11.70826 121.66528 26281 ft 464 kts 137°
2026-04-24 12:00 11.68453 121.68787 25560 ft 463 kts 137°
2026-04-24 12:00 11.66095 121.71030 24899 ft 461 kts 136°
2026-04-24 12:00 11.63736 121.73269 24418 ft 455 kts 136°
2026-04-24 12:00 11.61441 121.75449 23933 ft 449 kts 136°
2026-04-24 12:01 11.59168 121.77606 23442 ft 444 kts 136°
2026-04-24 12:01 11.56898 121.79763 22946 ft 439 kts 136°
2026-04-24 12:01 11.54676 121.81876 22451 ft 434 kts 136°
2026-04-24 12:01 11.52482 121.83961 21956 ft 430 kts 135°
2026-04-24 12:02 11.50279 121.86055 21448 ft 426 kts 136°
2026-04-24 12:02 11.48109 121.88116 20936 ft 423 kts 136°
2026-04-24 12:02 11.45985 121.90129 20427 ft 419 kts 136°
2026-04-24 12:02 11.43833 121.92168 19903 ft 416 kts 136°
2026-04-24 12:03 11.41715 121.94177 19386 ft 413 kts 136°
2026-04-24 12:03 11.39630 121.96153 18873 ft 410 kts 136°
2026-04-24 12:03 11.37524 121.98151 18348 ft 407 kts 136°
2026-04-24 12:03 11.35463 122.00105 17835 ft 404 kts 136°
2026-04-24 12:04 11.33414 122.02048 17328 ft 401 kts 136°
2026-04-24 12:04 11.31350 122.04005 16828 ft 399 kts 136°
2026-04-24 12:04 11.29345 122.05904 16329 ft 396 kts 136°
2026-04-24 12:04 11.27329 122.07814 15823 ft 394 kts 136°
2026-04-24 12:05 11.25320 122.09717 15340 ft 389 kts 136°
2026-04-24 12:05 11.23351 122.11581 14848 ft 381 kts 136°
2026-04-24 12:05 11.21400 122.13430 14184 ft 377 kts 136°
2026-04-24 12:05 11.19499 122.15230 13498 ft 374 kts 136°
2026-04-24 12:06 11.17609 122.17021 12826 ft 370 kts 136°
2026-04-24 12:06 11.15713 122.18815 12141 ft 366 kts 136°
2026-04-24 12:06 11.13888 122.20541 11762 ft 352 kts 136°
2026-04-24 12:06 11.12131 122.22206 11520 ft 338 kts 136°
2026-04-24 12:07 11.10437 122.23810 11283 ft 323 kts 136°
2026-04-24 12:07 11.08809 122.25349 11102 ft 312 kts 136°
2026-04-24 12:07 11.07244 122.26829 10924 ft 302 kts 136°
2026-04-24 12:07 11.05714 122.28276 10716 ft 294 kts 136°
2026-04-24 12:08 11.04214 122.29687 10478 ft 293 kts 136°
2026-04-24 12:08 11.02711 122.31097 10237 ft 293 kts 136°
2026-04-24 12:08 11.01201 122.32513 10005 ft 291 kts 136°
2026-04-24 12:08 10.99712 122.33910 9871 ft 291 kts 135°
2026-04-24 12:09 10.98219 122.35310 9711 ft 290 kts 135°
2026-04-24 12:09 10.96722 122.36716 9532 ft 290 kts 135°
2026-04-24 12:09 10.95246 122.38096 9312 ft 289 kts 137°
2026-04-24 12:09 10.93503 122.39148 8974 ft 292 kts 165°
2026-04-24 12:10 10.91467 122.39185 8642 ft 293 kts 191°
2026-04-24 12:10 10.89500 122.38625 8321 ft 292 kts 194°
2026-04-24 12:10 10.87544 122.38057 7957 ft 289 kts 194°
2026-04-24 12:11 10.83745 122.36995 7551 ft 269 kts 193°
2026-04-24 12:11 10.81963 122.36505 7357 ft 259 kts 193°
2026-04-24 12:11 10.80228 122.36033 7114 ft 254 kts 192°
2026-04-24 12:11 10.78505 122.35566 6804 ft 253 kts 192°
2026-04-24 12:12 10.76803 122.35107 6487 ft 251 kts 192°
2026-04-24 12:12 10.75114 122.34650 6168 ft 250 kts 192°
2026-04-24 12:12 10.73423 122.34193 5849 ft 249 kts 192°
2026-04-24 12:12 10.71751 122.33741 5533 ft 248 kts 192°
2026-04-24 12:13 10.70075 122.33287 5199 ft 247 kts 192°
2026-04-24 12:13 10.68390 122.32890 4862 ft 245 kts 180°
2026-04-24 12:13 10.66764 122.33219 4529 ft 235 kts 145°
2026-04-24 12:13 10.65612 122.34317 4363 ft 222 kts 117°
2026-04-24 12:14 10.65027 122.35731 4170 ft 213 kts 107°
2026-04-24 12:14 10.64550 122.37142 3936 ft 208 kts 107°
2026-04-24 12:14 10.64073 122.38524 3692 ft 204 kts 107°
2026-04-24 12:14 10.63650 122.39879 3502 ft 193 kts 97°
2026-04-24 12:15 10.63796 122.41192 3217 ft 185 kts 68°
2026-04-24 12:15 10.64504 122.42207 3128 ft 172 kts 43°
2026-04-24 12:15 10.65548 122.42815 3102 ft 173 kts 25°
2026-04-24 12:15 10.66680 122.43239 3068 ft 174 kts 23°
2026-04-24 12:16 10.67825 122.43652 2970 ft 173 kts 23°
2026-04-24 12:16 10.68936 122.44051 2858 ft 158 kts 24°
2026-04-24 12:16 10.69945 122.44418 2756 ft 146 kts 24°
2026-04-24 12:16 10.70887 122.44765 2542 ft 140 kts 24°
2026-04-24 12:17 10.71808 122.45106 2341 ft 139 kts 23°
2026-04-24 12:17 10.72725 122.45448 2155 ft 139 kts 22°
2026-04-24 12:17 10.73644 122.45789 1968 ft 138 kts 22°
2026-04-24 12:17 10.74552 122.46123 1780 ft 137 kts 22°
2026-04-24 12:18 10.75462 122.46459 1595 ft 137 kts 22°
2026-04-24 12:18 10.76366 122.46793 1415 ft 136 kts 21°
2026-04-24 12:18 10.77258 122.47123 1236 ft 136 kts 21°
2026-04-24 12:18 10.78150 122.47452 1054 ft 135 kts 21°
2026-04-24 12:19 10.79053 122.47786 868 ft 135 kts 21°
2026-04-24 12:19 10.79939 122.48113 687 ft 136 kts 20°
2026-04-24 12:19 10.80850 122.48429 507 ft 137 kts 20°
2026-04-24 12:19 10.81749 122.48764 318 ft 137 kts 20°
2026-04-24 12:20 10.82639 122.49090 179 ft 133 kts 20°
2026-04-24 12:20 10.83398 122.49373 175 ft 90 kts 20°
2026-04-24 12:20 10.83826 122.49531 175 ft 39 kts 20°
2026-04-24 12:20 10.83971 122.49577 175 ft 16 kts 16°
2026-04-24 12:21 10.84031 122.49603 175 ft 5 kts 49°
2026-04-24 12:21 10.84054 122.49625 175 ft 1 kts 342°
2026-04-24 12:21 10.84044 122.49612 175 ft 5 kts 204°
2026-04-24 12:21 10.83997 122.49593 175 ft 9 kts 201°
2026-04-24 12:22 10.83933 122.49569 175 ft 10 kts 200°
2026-04-24 12:22 10.83854 122.49541 175 ft 14 kts 200°
2026-04-24 12:22 10.83749 122.49503 175 ft 16 kts 200°
2026-04-24 12:22 10.83646 122.49464 175 ft 14 kts 201°
2026-04-24 12:23 10.83564 122.49470 175 ft 10 kts 123°
2026-04-24 12:23 10.83537 122.49537 175 ft 10 kts 109°
2026-04-24 12:23 10.83511 122.49610 175 ft 10 kts 111°
2026-04-24 12:23 10.83472 122.49672 175 ft 10 kts 152°
2026-04-24 12:24 10.83396 122.49663 175 ft 12 kts 202°
2026-04-24 12:24 10.83313 122.49631 175 ft 12 kts 199°
2026-04-24 12:24 10.83236 122.49603 175 ft 10 kts 199°
2026-04-24 12:24 10.83174 122.49580 175 ft 6 kts 200°
2026-04-24 12:25 10.83138 122.49585 175 ft 5 kts 123°
2026-04-24 12:25 10.83123 122.49622 174 ft 5 kts 110°
2026-04-24 12:25 10.83115 122.49645 174 ft 1 kts 110°
2026-04-24 12:25 10.83113 122.49650 174 ft 0 kts 110°
2026-04-24 12:26 10.83113 122.49651 174 ft 0 kts 110°